CAPE
61 974 1631 1773 2187 2074 2037 1662 1521 2125 2073 1757 1760 1575 1467 1439 1630 2140 2292 2112 2495 2487 2422 2396 2614 2062 2035 2076 2204 1888 2043 2268 2193 1949 1904 1942 1974 1907 1161 1124 1444 420 1197
117 1136 1800 1984 2334 2109 2160 1916 1550 2262 2282 2085 2325 1311 1272 1323 1410 1485 2064 2293 2176 2228 2274 2314 2153 1851 1689 1948 2418 2255 2294 2206 2199 1986 1733 1919 1325 1432 1656 655 1267 1314 1072
475 1316 1825 2393 2327 2477 2109 2011 1575 2316 2148 2135 2078 1851 1695 1680 2302 1912 1433 2111 2099 1993 2069 2170 2263 2217 2233 2162 2354 2220 2132 2187 2300 1849 1871 1377 1552 1586 1203 819 390 290 254
836 1454 1792 2527 2624 2422 2250 2071 1707 2214 2107 2151 2119 2090 2224 1744 1548 2050 1838 1551 1802 1926 1915 1820 2044 2120 2272 2273 2069 2295 2166 2058 1932 1772 1212 866 1047 1533 1193 1540 1402 1241 975
1212 1448 1615 2248 2596 2277 2194 2056 1894 2260 1918 2172 2104 2011 2081 2054 1889 1816 1758 1679 1502 1709 1911 1996 1958 2105 1976 1895 1942 2161 2186 2106 1967 1449 1196 1110 1232 1632 1247 534 1237 1535 1119
1188 1375 2159 2268 2227 2230 2174 2071 2050 2244 1864 2073 1873 1861 1735 1605 1859 1574 1778 1572 1643 1634 1730 1817 1989 1872 1900 1989 2037 2279 2102 2033 1813 1734 1973 2201 1734 1343 1670 394 679 1363 1327
1149 1382 1694 2404 2230 2270 2254 2159 1936 2019 1989 2008 1899 1846 1683 1567 1647 1530 1373 1542 1545 1420 1546 1508 1842 1788 1888 1849 2303 2324 2085 2010 1668 1774 1615 1631 2058 2068 1122 641 376 453 530
1120 1400 1540 1946 2191 2205 2175 2150 1858 1998 1843 1809 1666 1755 1507 1724 1511 1327 1298 1067 1042 1250 1469 1724 1621 1798 1956 2059 2344 2308 2044 1983 1524 1551 1661 1427 2129 1898 903 1629 1328 1548 1381
1293 1476 1517 1394 1594 1906 1955 1877 1821 1921 1785 1722 1857 1760 1606 1475 1478 1475 1451 1254 1115 1117 1424 1524 1753 1916 2023 2068 2121 2036 1911 1788 1355 1708 1841 1888 2324 1238 1336 1641 989 778 752
1355 1493 1662 1529 1389 1415 1637 1815 1910 1843 1847 1688 1694 1531 1470 1306 1250 1459 1500 1679 1187 1193 1417 1548 1732 1621 1979 2135 2046 1952 1717 1652 1265 1473 1216 1582 2035 1835 1954 1741 1648 959 956
1177 1285 1286 1381 1399 1548 1576 1622 1818 2041 1553 1657 1419 1440 1150 1055 1227 1192 1485 1408 1241 1261 1446 1592 1608 1620 1768 1773 2189 2023 1586 1075 1194 1315 1694 2007 2123 1524 1914 1807 1425 1201 1085
851 1106 1203 1289 1233 1309 1663 1212 1212 1335 1229 1184 1295 1005 832 988 972 1215 1464 1475 1335 1179 1178 1191 1337 1763 1165 1073 1708 1897 901 1041 1155 1308 1625 1888 2145 1860 1454 861 1299 1323 1143
579 909 1101 1154 1219 1315 1487 1221 1280 1214 1161 1099 826 676 755 553 985 1183 1250 1145 1196 1290 1382 1275 1145 738 754 1012 832 974 879 931 1041 1311 1654 1947 1836 1411 1332 1529 1099 1140 1207
548 729 855 839 1049 1179 1418 1277 1131 926 801 685 493 518 577 644 791 756 833 765 715 549 644 596 539 796 937 674 683 821 807 805 889 1210 1632 2019 1823 1313 1439 1363 906 1016 965
449 671 629 699 918 1041 1188 1062 829 768 615 320 367 457 574 518 384 389 326 482 358 543 391 235 429 520 541 587 663 628 764 725 874 1179 1503 1516 1646 1204 1241 1240 984 1070 989
292 408 482 574 783 890 982 811 592 497 577 519 293 502 362 159 136 351 465 535 502 458 526 300 342 460 762 547 593 611 646 717 940 1098 1254 1329 1521 1720 1401 1358 1138 1198 961
94 188 357 467 467 612 734 565 396 446 634 699 588 416 426 208 169 287 395 435 377 341 510 596 431 567 611 433 637 457 598 649 829 1008 1046 1155 1298 1511 1521 1318 1005 994 827
5 124 268 384 274 353 440 318 238 362 550 711 443 330 391 265 158 297 261 140 222 324 457 523 424 557 446 371 421 400 404 311 603 773 742 735 858 1237 1458 1772 1447 990 745
17 83 237 309 263 244 236 243 332 462 561 591 465 240 208 345 327 434 117 175 408 518 494 274 477 551 336 408 381 404 412 381 345 222 318 397 402 677 497 487 1116 1521 878
29 40 178 217 234 199 169 321 374 362 414 509 356 138 230 367 190 335 196 327 459 395 472 140 362 291 282 310 403 570 561 460 447 476 333 298 330 332 339 259 230 304 954
45 30 94 161 211 155 139 383 262 242 250 203 393 156 487 366 330 141 206 320 383 361 143 216 181 330 318 371 420 410 459 362 293 477 566 422 399 515 542 571 612 591 474
36 35 26 113 193 186 197 343 270 321 303 188 283 204 496 642 280 69 177 443 121 225 366 239 97 220 219 165 197 254 194 32 23 75 137 373 384 514 789 877 829 799 731
6 24 5 20 167 240 226 193 240 233 259 278 286 222 611 634 599 573 365 493 148 214 104 126 109 161 145 155 152 203 274 101 67 45 44 84 144 193 289 590 869 904 866
0 3 12 10 105 217 278 195 109 197 259 285 290 220 645 740 785 765 491 541 472 236 173 103 308 134 35 75 108 82 121 161 84 177 67 55 59 189 158 246 398 686 926
0 0 0 3 9 117 188 220 107 144 268 335 442 422 448 912 875 990 720 729 461 236 288 575 582 325 265 74 172 414 137 77 21 179 216 183 136 145 234 265 364 441 476
5 0 0 0 41 84 46 138 141 144 203 209 310 440 512 500 929 909 1015 860 660 461 386 348 503 593 783 743 517 546 534 137 77 169 229 194 188 339 284 313 338 385 441
CIN
-143 -4 0 0 0 0 0 -16 -26 -2 -2 -8 -7 -15 -18 -14 -2 0 0 0 0 0 -1 -2 0 -1 -1 0 0 0 0 0 0 0 0 0 0 0 0 0 0 -14 0
-185 -5 0 0 0 0 0 -8 -23 0 0 0 0 -23 -15 -9 -2 0 0 0 0 0 0 0 0 0 0 0 0 0 0 0 0 0 0 0 0 0 0 -12 0 0 0
-109 -7 -1 0 0 0 0 -1 -14 0 0 0 0 0 0 0 0 0 0 0 0 0 0 0 0 0 -1 0 0 0 -1 0 0 0 -1 -11 -1 0 0 -4 -28 -33 -38
-74 -13 -2 0 0 0 0 -1 -10 0 0 0 0 0 0 0 0 0 0 0 0 0 0 0 0 0 0 0 -2 0 0 0 0 -7 -22 -25 -1 0 -1 0 0 0 0
-23 -12 -4 0 0 0 0 0 0 0 0 0 0 0 0 0 0 0 0 0 0 0 0 0 0 0 0 -6 -3 -3 0 0 0 -13 -24 -25 -8 0 -1 -21 0 0 0
-15 -9 0 0 0 0 0 0 0 0 0 0 0 0 0 0 0 0 0 0 0 0 0 0 0 -2 -2 -1 -7 -5 0 0 -7 -16 -5 -2 -8 0 0 -37 -11 0 0
-9 -2 -1 0 0 0 0 0 0 0 0 0 0 0 0 0 0 0 0 0 -1 0 0 -2 0 -2 0 -7 -2 0 0 0 -10 -4 -10 -13 -3 0 -5 -18 -42 -23 -14
-23 -2 -1 0 0 0 0 0 0 0 0 0 0 0 0 0 0 0 0 0 0 0 0 0 -1 -2 0 0 0 0 0 0 -9 -15 -11 -14 -1 0 -13 0 0 0 0
-2 -2 -1 -4 0 0 0 -1 0 0 0 -1 0 0 0 -1 0 0 -1 0 0 0 0 0 0 0 0 -4 -6 0 0 -3 -34 -6 -1 -3 0 -8 -1 0 -1 -7 -10
0 0 0 -1 -1 -1 0 0 0 0 0 0 0 0 0 0 0 -1 -1 0 0 0 0 0 -1 -7 -4 -1 -4 -4 -8 -7 -25 -13 -20 -4 0 0 0 0 0 -1 -1
0 -1 -2 -5 -3 -1 -1 -1 0 0 0 0 -2 0 -18 -4 -2 -14 -3 0 0 0 0 -4 -8 -13 -13 -11 0 0 -23 -48 -24 -18 -6 -3 -1 0 0 0 0 0 0
0 0 -2 -3 -4 -4 -7 -1 -3 -1 -1 -3 -1 -8 -14 -7 -4 -1 -2 0 0 -8 -13 -17 -17 -14 -74 -80 -59 -17 -66 -59 -31 -16 -8 -3 0 0 0 -17 -1 0 0
-29 -4 0 -1 -3 -3 -2 -4 -1 -4 -6 -5 -12 -32 -34 -45 -14 -1 0 -1 -5 -33 -51 -30 -44 -125 -124 -113 -117 -99 -42 -67 -48 -21 -6 -2 -1 0 0 0 -1 -1 -2
-42 -22 -14 -19 -10 -4 -2 -9 -15 -26 -26 -25 -39 -40 -56 -55 -47 -33 -30 -32 -42 -63 -119 -133 -154 -124 -121 -47 -68 -76 -56 -79 -63 -29 -9 -1 0 0 0 0 -12 0 -1
-55 -34 -44 -47 -25 -24 -18 -27 -44 -61 -68 -58 -37 -36 -55 -74 -90 -89 -122 -139 -106 -98 -126 -49 -111 -77 -86 -62 -51 -76 -58 -93 -71 -39 -17 -1 0 0 0 0 0 0 0
-78 -63 -65 -66 -43 -41 -38 -54 -76 -80 -76 -69 -38 -48 -66 -70 -103 -87 -89 -77 -60 -45 -82 -52 -115 -31 -68 -68 -87 -64 -118 -98 -75 -59 -28 -11 0 0 0 0 0 0 0
-133 -102 -85 -80 -75 -67 -58 -74 -90 -74 -57 -47 -43 -41 -70 -32 -62 -91 -61 -51 -42 -41 -69 -58 -45 -30 -57 -35 -42 -66 -118 -109 -91 -62 -51 -33 -18 0 0 0 0 0 -2
-58 -112 -92 -83 -100 -89 -84 -93 -102 -77 -46 -36 -28 -40 -46 -37 -29 -72 -85 -142 -34 -43 -70 -74 -29 -157 -68 -28 -39 -39 -58 -147 -121 -96 -90 -75 -61 -29 -12 0 -2 -11 -45
-157 -118 -97 -102 -113 -126 -113 -89 -72 -49 -37 -31 -31 -31 -39 -89 -37 -58 -70 -145 -87 -181 -75 -63 -36 -41 -72 -25 -27 -21 -16 -21 -24 -48 -124 -131 -132 -87 -120 -141 -40 -9 -64
-156 -126 -121 -113 -94 -100 -101 -58 -43 -41 -42 -28 -31 -34 -115 -56 -118 -60 -53 -45 -124 -47 -37 -21 -28 -31 -33 -11 -29 -24 -30 -27 -26 -28 -38 -42 -49 -68 -99 -174 -284 -264 -119
-118 -154 -123 -112 -93 -95 -107 -40 -35 -44 -63 -33 -17 -192 -122 -98 -104 -76 -36 -42 -28 -31 -101 -116 -43 -25 -23 -20 -23 -29 -33 -34 -69 -61 -48 -49 -166 -151 -102 -123 -162 -191 -298
-104 -128 -137 -109 -91 -101 -43 -53 -39 -37 -35 -15 -29 -175 -140 -54 -37 -75 -56 -153 -28 -28 -50 -40 -60 -172 -35 -40 -53 -63 -81 -136 -143 -113 -89 -66 -95 -207 -172 -195 -244 -280 -301
-60 -95 -141 -77 -93 -90 -124 -78 -46 -41 -81 -96 -28 -128 -128 -56 -60 -47 -152 -83 -36 -42 -38 -45 -49 -60 -65 -55 -46 -69 -64 -134 -97 -115 -129 -147 -143 -189 -363 -316 -275 -296 -320
0 -22 -109 -161 -92 -87 -90 -91 -44 -107 -63 -79 -80 -89 -122 -40 -90 -113 -47 -48 -35 -20 -101 -174 -191 -103 -13 -207 -207 -117 -74 -84 -159 -114 -103 -141 -196 -151 -222 -198 -412 -367 -350
0 0 0 -177 -120 -67 -116 -89 -76 -125 -75 -51 -54 -52 -58 -41 -27 -37 -36 -34 -27 -19 -60 -103 -147 -169 -147 -268 -197 -44 -61 -98 -95 -24 -29 -73 -150 -148 -169 -188 -422 -473 -491
-23 0 0 0 -61 -77 -127 -91 -118 -141 -88 -61 -48 -48 -36 -39 -36 -36 -37 -34 -22 -30 -52 -162 -43 -149 -149 -169 -36 -83 -43 -127 -183 -39 -26 -76 -110 -290 -118 -136 -150 -161 -157
Wind_Speed
nan 13 9 8 7 4 2 1 1 1 2 3 3 2 2 3 4 4 6 6 6 6 5 5 5 7 6 5 3 3 3 1 1 2 2 2 3 2 3 2 4 4 3
10 11 11 10 9 8 7 5 5 5 5 5 5 6 6 7 7 6 7 7 7 7 5 5 7 5 4 5 5 3 4 1 1 2 1 3 3 1 3 1 3 5 5
9 11 13 12 11 10 9 8 6 5 5 5 7 8 9 9 9 8 7 6 7 8 6 5 4 5 5 5 7 5 3 1 2 1 1 7 5 3 4 3 1 1 4
8 11 13 11 13 12 11 9 5 5 6 6 8 7 8 9 8 6 8 6 5 5 4 2 5 3 3 5 6 11 1 2 1 3 7 5 2 5 6 5 2 1 2
6 10 12 12 12 14 13 10 8 7 7 7 6 5 7 7 7 6 5 4 3 2 2 3 3 4 4 7 10 8 2 1 3 1 3 5 6 3 8 5 5 5 5
6 8 10 10 10 14 14 13 12 10 9 9 8 6 3 2 2 4 4 3 0 1 3 5 6 7 9 5 7 3 1 2 1 4 5 2 4 5 6 4 4 7 6
7 9 9 8 11 15 13 14 13 12 12 11 13 12 10 10 9 6 6 7 7 8 6 7 8 7 6 6 2 2 3 3 7 7 5 5 5 4 4 4 5 10 9
5 9 11 9 11 14 14 13 13 13 14 15 17 16 17 15 13 14 11 10 11 9 9 8 8 7 5 6 3 4 5 7 8 9 8 8 1 3 2 5 10 12 9
5 7 10 10 12 11 13 10 13 12 14 18 15 17 20 18 18 15 13 10 8 9 10 10 8 6 7 5 4 4 6 9 10 11 10 9 5 4 5 11 11 12 13
8 7 9 9 11 11 11 10 13 14 14 13 17 18 17 15 16 14 12 10 8 9 10 10 8 7 7 5 5 5 8 8 11 10 12 12 12 11 13 14 15 16 19
7 7 9 9 11 12 12 10 12 12 14 15 13 14 12 15 15 12 13 9 8 10 10 9 9 7 5 4 3 7 8 13 12 11 13 13 15 15 15 15 18 21 23
4 7 8 8 11 12 13 10 11 13 15 16 15 15 15 12 13 12 11 8 10 10 12 8 8 6 8 12 12 9 13 14 13 12 14 14 12 17 18 19 22 22 21
5 7 8 8 10 10 9 12 13 13 14 15 14 14 15 15 15 12 12 11 14 9 11 8 8 12 10 12 14 13 13 15 14 13 13 14 16 16 18 23 23 23 23
6 6 8 10 10 10 10 14 12 12 11 14 13 13 16 16 16 12 13 12 12 13 12 10 9 10 14 15 15 13 15 15 14 14 14 14 17 21 23 23 23 23 23
6 9 7 10 12 11 9 12 12 12 10 10 14 16 13 13 14 13 12 11 11 11 15 14 10 10 13 15 14 11 12 13 13 14 17 21 25 26 25 24 23 22 21
9 10 10 11 12 9 8 12 11 11 11 10 11 14 14 12 12 12 13 12 12 11 11 14 13 13 13 13 12 11 10 13 14 16 19 24 26 25 25 25 23 23 21
nan 11 11 12 13 8 8 11 12 11 11 8 10 14 13 11 11 9 10 12 14 13 11 12 12 14 11 12 11 12 11 11 12 17 21 22 24 26 26 25 25 24 23
nan 11 13 11 11 7 10 12 12 10 10 10 11 9 11 12 9 8 8 11 11 10 11 13 12 13 11 13 13 11 11 12 15 17 19 19 20 19 22 26 25 25 26
nan nan 13 12 9 9 9 10 12 10 10 8 7 8 9 10 9 6 9 10 11 10 9 11 11 11 10 11 14 13 12 11 13 15 16 17 17 20 21 23 27 27 30
nan nan 11 12 11 10 11 9 11 8 9 7 6 7 5 7 8 5 7 10 11 12 9 9 9 10 9 11 14 15 19 17 15 14 16 18 20 21 20 22 22 25 30
nan nan nan 10 11 10 11 8 8 7 6 7 6 4 4 6 8 12 10 12 12 13 10 8 8 9 9 11 10 14 18 20 19 19 18 19 20 21 20 22 21 23 24
nan nan nan 12 9 6 6 8 7 6 5 7 6 5 6 7 7 nan 9 12 10 10 9 9 nan 7 7 11 9 10 14 nan nan nan 15 17 20 16 20 20 21 22 22
nan nan nan nan 7 3 5 9 11 10 10 10 7 8 9 9 9 10 9 8 7 8 7 8 6 6 7 8 10 9 10 12 nan nan nan nan 16 15 18 17 18 19 19
nan nan nan nan 9 5 5 8 7 6 6 9 9 9 10 10 11 10 9 7 6 7 7 7 5 7 nan nan 9 nan 9 10 nan 11 nan nan nan 17 17 16 17 17 16
nan nan nan nan nan 9 4 5 5 6 8 8 10 8 11 14 14 13 11 7 6 6 8 9 7 5 9 nan 10 11 10 nan nan 7 10 13 13 14 15 16 15 15 15
nan nan nan nan nan nan nan 6 3 2 5 9 9 11 15 16 14 14 12 11 8 5 6 8 8 7 10 10 11 11 11 10 nan 7 10 13 14 15 15 15 13 13 12
Wind_Direction
nan 76 58 45 17 348 351 271 232 0 343 19 359 312 303 298 295 283 296 285 262 269 264 282 259 260 258 252 253 246 183 140 351 251 238 226 211 250 314 268 199 213 197
70 74 58 50 35 38 42 30 26 20 355 347 294 269 274 276 284 274 260 284 295 284 284 292 297 302 272 260 235 207 173 126 263 311 264 239 234 12 304 352 170 139 162
68 88 84 60 55 52 56 47 30 9 339 317 297 298 301 291 267 288 290 270 278 277 281 297 296 318 312 275 222 179 187 197 220 284 7 77 71 295 279 312 351 172 144
67 101 99 70 62 59 52 47 32 24 337 334 306 300 304 300 289 274 274 276 286 292 321 307 307 327 316 324 240 128 174 252 237 186 113 128 106 278 260 234 256 175 156
73 102 87 60 53 49 49 45 45 43 8 7 318 301 281 277 263 275 276 283 257 287 346 355 27 38 50 84 72 132 159 277 290 115 106 100 93 298 280 247 209 189 149
85 95 58 53 49 48 48 49 48 40 14 23 10 4 346 294 233 241 269 210 243 100 43 75 72 82 81 105 87 49 244 303 11 96 88 73 72 289 266 241 215 172 155
113 106 88 57 55 52 53 52 46 39 46 50 51 62 81 87 113 109 70 92 113 93 97 90 73 93 75 97 342 341 10 41 87 82 79 98 88 294 266 220 171 161 158
101 121 106 74 66 59 56 51 49 45 59 65 69 81 87 90 90 88 100 90 99 96 94 95 89 102 107 66 31 20 20 54 77 84 79 81 117 312 309 151 148 147 139
137 135 121 107 84 65 62 57 52 56 65 72 78 82 84 73 77 78 72 77 86 85 91 89 96 115 125 89 53 56 56 58 75 80 73 80 28 20 96 137 134 131 121
157 152 131 129 117 105 97 52 54 62 65 81 77 71 63 74 81 85 83 75 65 63 64 74 82 97 92 74 96 75 60 71 83 85 84 77 56 74 101 118 115 117 115
148 157 145 138 126 116 102 81 64 67 70 71 81 79 93 89 94 93 77 69 60 49 45 52 55 74 76 103 88 68 76 89 90 91 92 80 77 94 103 112 110 112 107
81 144 150 142 131 119 116 113 106 98 101 100 100 100 94 91 86 86 75 74 64 57 46 41 52 64 96 100 99 82 92 84 84 91 95 86 97 101 104 109 113 111 103
77 136 138 137 134 122 121 111 107 100 103 102 88 90 90 89 89 87 91 91 93 93 103 89 91 91 91 94 91 85 84 84 82 83 90 95 100 100 107 113 112 108 98
74 127 144 140 146 134 124 111 108 100 100 104 70 95 90 90 87 80 90 92 97 83 94 100 89 97 98 91 83 81 74 75 80 88 94 91 106 104 111 113 106 103 104
86 148 144 150 151 143 129 119 106 98 103 86 89 98 78 82 83 89 95 97 82 81 81 90 87 86 93 95 73 60 73 76 82 95 105 104 113 115 113 109 105 105 101
140 145 155 154 153 144 134 114 107 111 102 84 91 97 77 84 76 83 93 101 99 90 82 88 97 91 89 89 65 62 69 88 97 105 113 119 111 110 110 109 107 101 98
nan 146 147 162 152 141 136 117 113 112 111 95 100 84 75 76 78 80 89 98 96 101 92 93 102 98 101 83 70 74 73 89 106 116 117 119 118 111 106 109 107 103 100
nan 141 151 147 145 131 128 119 116 110 106 102 102 84 74 82 75 83 96 96 90 96 102 109 112 103 99 94 83 86 94 107 114 118 117 117 113 110 112 106 104 101 100
nan nan 145 157 144 122 123 130 120 110 106 99 93 85 81 87 96 77 106 114 110 103 104 100 112 108 94 95 93 94 112 119 119 122 117 114 109 109 112 107 106 101 100
nan nan 144 148 146 138 147 153 138 135 122 116 78 69 56 96 99 102 112 115 110 109 113 113 106 110 100 94 101 100 105 111 110 110 112 116 115 110 109 108 107 106 102
nan nan nan 151 154 166 168 168 157 141 137 115 83 74 89 102 103 107 113 110 119 116 129 113 112 108 117 104 115 116 109 100 99 101 107 116 116 116 112 112 108 106 107
nan nan nan 159 171 165 180 163 153 158 145 134 146 132 94 103 97 nan 114 111 121 125 132 113 nan 119 132 114 120 130 130 nan nan nan 104 109 111 114 116 108 101 100 96
nan nan nan nan 179 200 184 183 176 188 173 165 143 133 120 114 118 110 105 120 112 112 106 112 126 136 132 131 128 121 131 116 nan nan nan nan 113 114 120 109 104 101 93
nan nan nan nan 172 178 208 187 205 173 160 137 131 142 133 125 118 120 111 114 125 128 130 118 116 126 nan nan 141 nan 126 115 nan 123 nan nan nan 125 124 115 109 99 91
nan nan nan nan nan 166 214 220 235 176 154 157 150 142 146 135 131 127 127 134 120 129 128 117 103 115 142 nan 144 136 128 nan nan 112 116 138 142 135 124 122 115 102 90
nan nan nan nan nan nan nan 191 227 250 176 163 168 156 151 142 138 131 135 128 122 127 119 117 118 127 147 159 153 143 135 141 nan 130 134 135 137 142 143 136 117 107 97